KI5IZM-13 Weather Reports


Display with metric or nautical units.
time (UTC)temp
F
wind
direction
speed
MPH
gust
MPH
rain 1hr
in
rain 24hr
in
rain mn
in
humidity
%
barometer
mb
20260905094516 75 284 0.0 0.0 0.00 0.00 0.00 93 1014.5
20260905093018 75 284 0.0 0.0 0.00 0.00 0.00 93 1014.3
20260905091527 75 284 0.0 0.0 0.00 0.00 0.00 92 1014.2
20260905090030 75 284 0.0 0.0 0.00 0.00 0.00 92 1014.2
20260905084540 75 284 0.0 0.0 0.00 0.00 0.00 92 1014.0
20260905083018 75 284 0.0 0.0 0.00 0.00 0.00 92 1014.0
20260905081526 76 284 0.0 0.0 0.00 0.00 0.00 91 1014.1
20260905080045 76 284 0.0 0.0 0.00 0.00 0.00 91 1014.1
20260905074507 76 284 0.0 0.0 0.00 0.00 0.00 90 1014.2
20260905073024 76 284 0.0 0.0 0.00 0.00 0.00 90 1014.4
20260905071511 77 284 0.0 0.0 0.00 0.00 0.00 90 1014.5
20260905070011 77 284 0.0 0.0 0.00 0.00 0.00 89 1014.7
20260905064510 77 284 0.0 0.0 0.00 0.00 0.00 89 1014.9
20260905063013 77 284 0.0 0.0 0.00 0.00 0.00 88 1014.7
20260905061511 78 284 0.0 0.0 0.00 0.00 0.00 87 1014.4
20260905060014 78 284 0.0 0.0 0.00 0.00 0.00 87 1014.5
20260905054516 78 284 0.0 0.0 0.00 0.00 0.00 86 1014.3
20260905053013 79 284 0.0 0.0 0.00 0.00 0.00 85 1014.2
20260905051515 79 284 0.0 0.0 0.00 0.00 0.00 84 1014.2
20260905050018 80 284 0.0 0.0 0.00 0.00 0.00 82 1014.0
20260905044523 81 284 0.0 0.0 0.00 0.00 0.00 81 1014.3
20260905043016 82 284 0.0 0.0 0.00 0.00 0.00 79 1014.3
20260905041512 83 149 0.0 0.0 0.00 0.00 0.00 79 1014.4
20260905040020 83 149 0.0 0.0 0.00 0.00 0.00 74 1014.3
20260905034526 83 150 0.0 2.0 0.00 0.00 0.00 74 1014.4
20260905033019 83 146 0.0 2.0 0.00 0.00 0.00 75 1014.5
20260905031520 82 163 0.0 2.0 0.00 0.00 0.00 77 1014.4
20260905030013 81 175 0.0 3.0 0.00 0.00 0.00 79 1014.4
20260905024518 82 83 0.0 0.0 0.00 0.00 0.00 82 1014.2
20260905023023 82 83 0.0 0.0 0.00 0.00 0.00 80 1014.1
20260905021523 83 83 0.0 0.0 0.00 0.00 0.00 79 1013.9
20260905020024 84 83 0.0 0.0 0.00 0.00 0.00 77 1013.6
20260905014520 84 83 0.0 0.0 0.00 0.00 0.00 75 1013.4
20260905013026 85 83 0.0 0.0 0.00 0.00 0.00 72 1013.2
20260905011526 86 83 0.0 0.0 0.00 0.00 0.00 71 1013.0
20260905010027 88 83 0.0 0.0 0.00 0.00 0.00 69 1013.0
20260905004530 89 83 0.0 0.0 0.00 0.00 0.00 66 1012.9
20260905003027 90 83 0.0 0.0 0.00 0.00 0.00 63 1013.0
20260905001529 92 83 0.0 0.0 0.00 0.00 0.00 59 1012.9
20260905000034 93 187 0.0 1.0 0.00 0.00 0.00 56 1012.8
20260904234539 94 123 1.0 5.0 0.00 0.00 0.00 53 1012.8
20260904233030 94 137 1.0 5.0 0.00 0.00 0.00 53 1012.7
20260904231531 95 88 0.0 5.0 0.00 0.00 0.00 52 1012.8
20260904230029 95 205 1.0 5.0 0.00 0.00 0.00 51 1012.9
20260904224539 95 163 1.0 5.0 0.00 0.00 0.00 50 1012.9
20260904223029 95 78 0.0 5.0 0.00 0.00 0.00 50 1012.8
20260904221521 95 86 0.0 2.0 0.00 0.00 0.00 52 1012.8
20260904220008 95 139 2.0 5.0 0.00 0.00 0.00 51 1012.9
20260904214513 95 191 0.0 3.0 0.00 0.00 0.00 52 1013.0
20260904213007 95 315 0.0 8.0 0.00 0.00 0.00 52 1013.1
20260904211514 95 211 0.0 9.0 0.00 0.00 0.00 52 1013.5
20260904210019 95 200 0.0 9.0 0.00 0.00 0.00 51 1013.6
20260904204504 95 136 3.0 9.0 0.00 0.00 0.00 52 1013.6
20260904203004 95 131 2.0 5.0 0.00 0.00 0.00 53 1013.7
20260904201510 94 285 1.0 7.0 0.00 0.00 0.00 54 1014.1
20260904200017 94 119 2.0 7.0 0.00 0.00 0.00 54 1014.4
20260904194524 94 200 1.0 9.0 0.00 0.00 0.00 54 1014.7
20260904193025 93 259 3.0 8.0 0.00 0.00 0.00 55 1014.9
20260904191510 93 257 1.0 7.0 0.00 0.00 0.00 57 1015.0
20260904190012 92 172 0.0 10.0 0.00 0.00 0.00 59 1015.0
20260904184526 91 98 0.0 7.0 0.00 0.00 0.00 59 1015.3
20260904183027 92 196 0.0 9.0 0.00 0.00 0.00 59 1015.5
20260904181527 91 222 0.0 7.0 0.00 0.00 0.00 62 1015.6
20260904180008 90 194 0.0 8.0 0.00 0.00 0.00 64 1015.8
20260904174516 90 132 1.0 8.0 0.00 0.00 0.00 65 1015.9
20260904173036 90 134 1.0 6.0 0.00 0.00 0.00 67 1016.0
20260904171528 90 126 1.0 8.0 0.00 0.00 0.00 66 1016.4
20260904170040 88 144 0.0 8.0 0.00 0.00 0.00 68 1016.6
20260904164514 87 226 1.0 4.0 0.00 0.00 0.00 74 1016.6
20260904163016 87 288 0.0 6.0 0.00 0.00 0.00 74 1016.7
20260904161525 86 105 0.0 6.0 0.00 0.00 0.00 75 1016.7
20260904160030 86 185 2.0 6.0 0.00 0.00 0.00 77 1016.7
20260904154531 85 236 1.0 5.0 0.00 0.00 0.00 80 1016.7
20260904153011 84 258 1.0 7.0 0.00 0.00 0.00 82 1016.6
20260904151523 83 159 3.0 8.0 0.00 0.00 0.00 85 1016.6
20260904150034 83 90 3.0 8.0 0.00 0.00 0.00 87 1016.6
20260904144529 81 135 2.0 6.0 0.00 0.00 0.00 88 1016.7
20260904143036 81 298 0.0 5.0 0.00 0.00 0.00 90 1016.7
20260904141535 80 98 1.0 6.0 0.00 0.00 0.00 91 1016.6
20260904140044 79 142 1.0 4.0 0.00 0.00 0.00 92 1016.6
20260904134527 77 111 0.0 5.0 0.00 0.00 0.00 95 1016.5
20260904133033 76 132 0.0 1.0 0.00 0.00 0.00 96 1016.4
20260904131511 74 232 0.0 0.0 0.00 0.01 0.00 96 1016.4
20260904130019 73 265 0.0 0.0 0.00 0.01 0.00 95 1016.2
20260904124526 73 265 0.0 0.0 0.00 0.01 0.00 95 1016.1
20260904123006 73 244 0.0 1.0 0.00 0.01 0.00 95 1015.8
20260904121512 73 147 0.0 0.0 0.00 0.01 0.00 95 1015.7
20260904120017 73 147 0.0 0.0 0.00 0.01 0.00 95 1015.6
20260904114526 73 147 0.0 0.0 0.00 0.01 0.00 95 1015.4
20260904113032 73 146 0.0 0.0 0.00 0.01 0.00 95 1015.5
20260904111508 74 146 0.0 0.0 0.00 0.01 0.00 94 1015.5
20260904110014 74 146 0.0 0.0 0.00 0.01 0.00 94 1015.5
20260904104520 74 146 0.0 0.0 0.00 0.01 0.00 94 1015.5
20260904103031 74 146 0.0 0.0 0.00 0.01 0.00 94 1015.3
20260904101530 74 146 0.0 0.0 0.00 0.01 0.00 94 1015.2